CW3367 Weather Reports


time (UTC)temp
C
wind
direction
speed
KPH
gust
KPH
rain 1hr
cm
rain 24hr
cm
rain mn
cm
humidity
%
barometer
mb
20260504204706 30 157 3.2 14.5 0.00 0.00 0.00 44 1014.2
20260504204206 30 44 4.8 16.1 0.00 0.00 0.00 43 1014.2
20260504202706 30 133 1.6 14.5 0.00 0.00 0.00 42 1014.3
20260504201706 31 46 8.0 14.5 0.00 0.00 0.00 40 1014.2
20260504201206 30 110 1.6 14.5 0.00 0.00 0.00 40 1014.3
20260504195706 30 63 6.4 20.9 0.00 0.00 0.00 43 1014.5
20260504195206 30 19 6.4 20.9 0.00 0.00 0.00 42 1014.7
20260504194707 30 36 11.3 17.7 0.00 0.00 0.00 42 1014.6
20260504193706 29 146 4.8 14.5 0.00 0.00 0.00 42 1015.1
20260504192706 29 166 4.8 17.7 0.00 0.00 0.00 42 1014.9
20260504192206 29 89 4.8 17.7 0.00 0.00 0.00 42 1015.1
20260504191706 30 50 11.3 16.1 0.00 0.00 0.00 42 1015.1
20260504191207 30 9 1.6 16.1 0.00 0.00 0.00 42 1015.2
20260504190707 30 38 1.6 16.1 0.00 0.00 0.00 40 1015.2
20260504190207 30 9 6.4 14.5 0.00 0.00 0.00 41 1015.3
20260504185706 30 87 1.6 25.7 0.00 0.00 0.00 41 1015.4
20260504185206 30 64 1.6 25.7 0.00 0.00 0.00 41 1015.3
20260504184706 30 51 1.6 17.7 0.00 0.00 0.00 41 1015.5
20260504183206 30 80 16.1 17.7 0.00 0.00 0.00 40 1015.9
20260504182707 30 86 17.7 17.7 0.00 0.00 0.00 42 1016.0
20260504181706 29 40 1.6 12.9 0.00 0.00 0.00 43 1016.3
20260504181206 28 14 3.2 12.9 0.00 0.00 0.00 43 1016.3
20260504180706 28 69 3.2 14.5 0.00 0.00 0.00 43 1016.3
20260504175206 28 35 3.2 17.7 0.00 0.00 0.00 44 1016.5
20260504174706 28 27 6.4 17.7 0.00 0.00 0.00 43 1016.5
20260504174206 28 60 1.6 17.7 0.00 0.00 0.00 44 1016.5
20260504173707 28 60 14.5 19.3 0.00 0.00 0.00 43 1016.6
20260504173206 28 59 9.7 19.3 0.00 0.00 0.00 43 1016.6
20260504172706 28 56 16.1 16.1 0.00 0.00 0.00 43 1016.6
20260504172206 28 94 4.8 17.7 0.00 0.00 0.00 43 1016.7
20260504171706 28 87 8.0 17.7 0.00 0.00 0.00 44 1016.7
20260504171206 28 30 4.8 14.5 0.00 0.00 0.00 45 1016.7
20260504170706 28 45 4.8 11.3 0.00 0.00 0.00 45 1016.7
20260504170206 28 16 4.8 20.9 0.00 0.00 0.00 47 1016.7
20260504160207 27 65 4.8 22.5 0.00 0.00 0.00 45 1017.5
20260504150706 26 61 4.8 19.3 0.00 0.00 0.00 48 1017.8
20260504150206 26 355 6.4 19.3 0.00 0.00 0.00 49 1017.7
20260504141206 25 82 17.7 24.1 0.00 0.00 0.00 58 1017.6
20260504140706 25 56 11.3 24.1 0.00 0.00 0.00 58 1017.6
20260504140206 24 18 6.4 20.9 0.00 0.00 0.00 59 1017.6
20260504130706 22 30 4.8 16.1 0.00 0.00 0.00 66 1017.4
20260504130206 22 75 6.4 16.1 0.00 0.00 0.00 65 1017.3
20260504110706 16 38 1.6 4.8 0.00 0.00 0.00 82 1016.6
20260504110206 16 20 3.2 4.8 0.00 0.00 0.00 82 1016.7
20260504100206 17 39 1.6 6.4 0.00 0.03 0.00 82 1016.3
20260504081206 18 28 3.2 3.2 0.00 0.08 0.00 78 1016.1
20260504080707 18 24 1.6 3.2 0.00 0.08 0.00 78 1016.1
20260504080206 18 19 0.0 3.2 0.00 0.08 0.00 78 1016.3
20260504070206 18 24 0.0 3.2 0.00 0.10 0.00 78 1016.6
20260504060206 18 33 0.0 0.0 0.00 0.15 0.00 77 1016.7
20260504050706 19 55 1.6 4.8 0.00 0.15 0.00 76 1016.9
20260504050206 19 67 1.6 3.2 0.00 0.18 0.00 76 1017.0
20260504045206 19 67 0.0 3.2 0.00 0.18 0.00 76 1017.5
20260504044207 20 49 1.6 3.2 0.00 0.20 0.00 75 1017.5
20260504043706 20 66 1.6 1.6 0.00 0.20 0.00 74 1017.6
20260504043206 20 66 0.0 0.0 0.00 0.23 0.00 74 1017.9
20260504042707 20 66 0.0 0.0 0.00 0.23 0.00 74 1017.8
20260504042206 20 66 0.0 0.0 0.00 0.23 0.00 74 1017.7
20260504041707 20 66 0.0 0.0 0.00 0.23 0.00 74 1017.7
20260504041207 20 66 0.0 1.6 0.00 0.23 0.00 73 1017.8
20260504040707 20 66 0.0 3.2 0.00 0.23 0.00 73 1017.9
20260504040206 20 66 1.6 3.2 0.00 0.23 0.00 73 1017.9
20260504035707 20 76 0.0 3.2 0.00 0.23 0.00 73 1017.7
20260504035206 20 94 0.0 4.8 0.00 0.23 0.23 73 1017.8
20260504034707 20 79 1.6 4.8 0.00 0.23 0.23 73 1017.8
20260504034206 20 82 4.8 4.8 0.00 0.23 0.23 73 1017.7
20260504033707 20 61 1.6 3.2 0.00 0.23 0.23 73 1017.9
20260504032706 20 86 1.6 4.8 0.00 0.23 0.23 72 1017.7
20260504032207 20 73 3.2 6.4 0.00 0.23 0.23 72 1017.6
20260504031706 21 71 3.2 6.4 0.00 0.23 0.23 72 1017.6
20260504031207 21 80 1.6 6.4 0.00 0.23 0.23 72 1017.7
20260504030707 21 68 4.8 6.4 0.00 0.23 0.23 72 1017.4
20260504030207 21 48 3.2 6.4 0.00 0.23 0.23 72 1017.6
20260504025706 21 112 3.2 6.4 0.00 0.25 0.23 72 1017.6
20260504025206 21 53 1.6 9.7 0.00 0.28 0.23 72 1017.6
20260504024706 21 71 3.2 9.7 0.00 0.28 0.23 72 1017.6
20260504023707 21 74 1.6 8.0 0.00 0.28 0.23 71 1017.6
20260504023206 21 83 4.8 9.7 0.00 0.28 0.23 71 1017.4
20260504022206 21 72 1.6 9.7 0.00 0.28 0.23 71 1017.4
20260504020707 21 32 4.8 6.4 0.00 0.28 0.23 71 1017.3
20260504020206 21 74 1.6 6.4 0.00 0.28 0.23 71 1017.3
20260504015707 21 74 1.6 4.8 0.00 0.28 0.23 71 1017.2
20260504015207 21 49 3.2 6.4 0.00 0.28 0.23 71 1017.1
20260504014706 21 51 1.6 6.4 0.00 0.28 0.23 71 1017.2
20260504014207 21 53 1.6 6.4 0.00 0.28 0.23 70 1017.2
20260504013207 21 102 1.6 6.4 0.00 0.28 0.23 70 1016.9
20260504012706 21 73 4.8 6.4 0.00 0.28 0.23 70 1017.1
20260504012206 22 74 1.6 6.4 0.00 0.28 0.23 70 1017.0
20260504011206 22 72 3.2 8.0 0.00 0.28 0.23 69 1016.8
20260504005707 22 100 1.6 3.2 0.00 0.28 0.23 69 1016.4
20260504005206 22 60 3.2 4.8 0.00 0.28 0.23 68 1016.4
20260504004707 22 59 3.2 6.4 0.00 0.28 0.23 67 1016.4
20260504004206 22 57 3.2 6.4 0.00 0.28 0.23 67 1016.3
20260504003707 22 48 3.2 6.4 0.00 0.28 0.23 67 1016.3
20260504002707 23 56 3.2 6.4 0.00 0.28 0.23 66 1015.9
20260504002206 23 57 3.2 6.4 0.00 0.28 0.23 65 1016.0
20260504001706 23 67 1.6 6.4 0.00 0.28 0.23 65 1016.0
20260504000706 23 63 1.6 6.4 0.00 0.28 0.23 64 1015.9
20260504000206 23 74 1.6 6.4 0.00 0.28 0.23 64 1015.9
20260503235706 23 80 3.2 8.0 0.00 0.28 0.23 64 1015.9
20260503234707 24 113 4.8 9.7 0.00 0.28 0.23 63 1015.9
20260503234207 24 71 1.6 9.7 0.00 0.28 0.23 62 1015.8
20260503233707 24 80 1.6 9.7 0.00 0.28 0.23 62 1015.6
20260503233206 24 76 4.8 9.7 0.00 0.28 0.23 62 1015.6
20260503232706 24 51 4.8 8.0 0.00 0.28 0.23 61 1015.7
20260503232206 25 79 0.0 12.9 0.00 0.28 0.23 61 1015.6
20260503230706 25 52 6.4 11.3 0.00 0.28 0.23 60 1015.6
20260503230207 25 78 4.8 8.0 0.00 0.28 0.23 60 1015.6
20260503225706 25 34 1.6 11.3 0.00 0.28 0.23 60 1015.6
20260503225206 25 22 1.6 12.9 0.00 0.30 0.23 60 1015.5
20260503224706 25 78 11.3 14.5 0.00 0.30 0.23 60 1015.5
20260503224207 25 68 4.8 14.5 0.00 0.30 0.23 59 1015.5
20260503222706 25 80 0.0 11.3 0.00 0.33 0.23 59 1015.5
20260503222206 25 47 4.8 11.3 0.00 0.36 0.23 58 1015.5
20260503221707 26 105 6.4 9.7 0.00 0.38 0.23 58 1015.5
20260503221207 26 84 8.0 9.7 0.00 0.41 0.23 57 1015.5
20260503220706 26 54 4.8 11.3 0.00 0.41 0.23 57 1015.5
20260503220206 26 57 3.2 11.3 0.00 0.43 0.23 57 1015.4
20260503215706 26 92 9.7 12.9 0.00 0.43 0.23 58 1015.4
20260503214706 26 76 3.2 11.3 0.00 0.43 0.23 56 1015.5
20260503214207 26 53 4.8 11.3 0.00 0.43 0.23 55 1015.4
20260503213706 26 68 1.6 12.9 0.00 0.46 0.23 55 1015.5
20260503213206 26 63 4.8 12.9 0.00 0.46 0.23 54 1015.5
20260503212706 26 55 1.6 11.3 0.00 0.46 0.23 54 1015.5
20260503211707 27 75 6.4 19.3 0.00 0.48 0.23 52 1015.5
20260503211206 27 49 4.8 9.7 0.00 0.48 0.23 53 1015.3
20260503210707 27 62 3.2 8.0 0.00 0.48 0.23 53 1015.5
20260503205706 27 55 6.4 16.1 0.00 0.48 0.23 53 1015.6
20260503205207 27 17 3.2 16.1 0.00 0.48 0.23 53 1015.5